Location: Centerville
(32.8776°N, 96.6203°W)
Time: 02:12:57
(UTC+00:00)

SL-16 R/B - Pass Details

Date: 17 June 2021
Orbit: 842 x 847 km, 71.0° (Epoch: 27 July)

Event Time Altitude Azimuth Distance (km) Brightness Sun altitude
Exits shadow 07:49:27 19° 298° (WNW) 1,926 4.1 -30.4°
Maximum altitude 07:49:43 19° 302° (WNW) 1,923 4.1 -30.4°
Drops below altitude 10° 07:53:36 10° 345° (NNW) 2,468 5.2 -30.1°
Sets 07:56:50 0° 4° (N) 3,406 6.4 -29.8°
